This is the latest recevied weather packets stored in our database for station/object ZS1BR-13. If no packets are shown the sender has not sent any weather packets the latest 10 day(s).
| Time | Temp. | Humidity | Pressure | Rain* | Wind** | Luminosity | Snow |
|---|---|---|---|---|---|---|---|
| 1777870537 | 18.33° C | 82% | 1012.5 hPa | 0 mm | - | - | - |
| 1777869929 | 18.33° C | 82% | 1012.4 hPa | 0 mm | - | - | - |
| 1777869320 | 18.33° C | 82% | 1012.6 hPa | 0 mm | - | - | - |
| 1777868774 | 18.89° C | 82% | 1012.6 hPa | 0 mm | - | - | - |
| 1777868167 | 18.89° C | 83% | 1012.1 hPa | 0 mm | - | - | - |
| 1777867559 | 18.33° C | 84% | 1012 hPa | 0 mm | - | - | - |
| 1777866953 | 18.33° C | 84% | 1012.1 hPa | 0 mm | - | - | - |
| 1777865739 | 18.89° C | 82% | 1011.6 hPa | 0 mm | - | - | - |
| 1777864525 | 18.89° C | 83% | 1011.6 hPa | 0 mm | - | - | - |
| 1777863919 | 18.89° C | 84% | 1011.7 hPa | 0 mm | - | - | - |
| 1777847769 | 20° C | 81% | 1012.2 hPa | 0 mm | - | - | - |
| 1777847160 | 20° C | 80% | 1012.2 hPa | 0 mm | - | - | - |
| 1777845947 | 20.56° C | 78% | 1012.4 hPa | 0 mm | - | - | - |
| 1777845339 | 20.56° C | 78% | 1012.7 hPa | 0 mm | - | - | - |
| 1777844123 | 20.56° C | 78% | 1012.9 hPa | 0 mm | - | - | - |
| 1777843575 | 20.56° C | 78% | 1012.8 hPa | 0 mm | - | - | - |
| 1777842967 | 20.56° C | 77% | 1012.7 hPa | 0 mm | - | - | - |
| 1777842360 | 20.56° C | 77% | 1012.8 hPa | 0 mm | - | - | - |
| 1777841753 | 20.56° C | 77% | 1013 hPa | 0 mm | - | - | - |
| 1777840538 | 20.56° C | 76% | 1013.3 hPa | 0 mm | - | - | - |
| 1777839929 | 21.11° C | 77% | 1013.5 hPa | 0 mm | - | - | - |
| 1777839322 | 21.11° C | 76% | 1013.5 hPa | 0 mm | - | - | - |
| 1777837560 | 21.11° C | 77% | 1013.8 hPa | 0 mm | - | - | - |
| 1777836953 | 21.11° C | 76% | 1013.7 hPa | 0 mm | - | - | - |
| 1777834521 | 21.11° C | 75% | 1013.6 hPa | 0 mm | - | - | - |
* Rain latest hour (hover to see other rain measurements)
** Current wind speed in m/s (hover to see current wind gust speed)